Regional Weather Roundup
Issued by NWS

Home | Current Version | Previous Version | Graphics & Text | Print | Product List | Glossary On
Versions: 1 2 3 4 5 6 7 8 9 10 11 12 13 14 15 16 17 18 19 20 21 22 23 24 25 26 27 28 29 30 31 32 33 34 35 36 37 38 39 40 41 42 43 44 45 46 47 48 49 50
629
ASUS43 KIND 232209
RWRIN

WEATHER ROUNDUP FOR INDIANA
NATIONAL WEATHER SERVICE INDIANAPOLIS IN
500 PM EST THU NOV 23 2017

NOTE: "FAIR" INDICATES FEW OR NO CLOUDS BELOW 12,000 FEET WITH NO
SIGNIFICANT WEATHER AND/OR OBSTRUCTIONS TO VISIBILITY.

* - STATION DOES NOT REPORT WEATHER SUCH AS PRECIPITATION OR FOG.

+ - STATION NOT QUALITY CONTROLLED BY THE NATIONAL WEATHER SERVICE.
    USE DATA WITH CAUTION...ESPECIALLY DEWPOINT AND RELATIVE
    HUMIDITY OBSERVATIONS.

INZ001>003-010>013-019-020-232300-
NORTHWEST INDIANA

CITY           SKY/WX    TMP DP  RH WIND       PRES   REMARKS
GARY /AIRPORT/ CLEAR     48  23  37 SW8       29.92F
KNOX *+        CLEAR     43  28  56 S9        29.94F
LA PORTE +     CLEAR     42  27  54 SW9       29.94S
MICHIGAN CITY+ CLEAR     43  27  52 S7        29.94S
MONTICELLO +   CLEAR     42  24  48 SW7       29.95F
RENSSELAER +   CLEAR     45  21  39 S9        29.94F
VALPARAISO     CLEAR     46  27  47 SW8       29.94S

$$

LMZ046-743>745-232300-
SOUTHERN LAKE MICHIGAN

STATION/POSITION TIME  TEMP    WIND        PRES    WAVE
                       AIR SEA DIR/SP/G            HT
                 (UTC) (F)     (DEG/KT/KT) (MB)    (FT)
BURNS HARBOR     2140   46     220/  8/ 12 1013.9S
MICHIGAN CITY    2140   45     200/ 11/ 12   N/A

$$

INZ004-005-014>016-021>024-232300-
NORTH CENTRAL INDIANA

CITY           SKY/WX    TMP DP  RH WIND       PRES   REMARKS
GOSHEN         CLEAR     41  22  46 SW10      29.94S
LOGANSPORT +   CLEAR     41  28  60 S7        29.96F
PERU/GRISSOM   CLEAR     41  26  53 S6        29.95F
ROCHESTER +    CLEAR     43  27  52 SW5       29.95F
SOUTH BEND     CLEAR     41  25  53 SW10      29.94S
WARSAW +       CLEAR     41  23  48 S6        29.94F

$$

INZ006>009-017-018-025>027-232300-
NORTHEAST INDIANA

CITY           SKY/WX    TMP DP  RH WIND       PRES   REMARKS
AUBURN +       CLEAR     39  21  48 S6        29.95F WCI  35
FORT WAYNE     CLEAR     40  26  57 S8        29.96F WCI  34
HUNTINGTON +   CLEAR     40  20  44 SW9       29.96F WCI  35
KENDALLVILLE + CLEAR     38  23  54 SW8       29.94S WCI  32

$$

INZ028-029-035-036-043>045-051>053-232300-
WEST CENTRAL INDIANA

CITY           SKY/WX    TMP DP  RH WIND       PRES   REMARKS
CRAWFORDSVL +  CLEAR     40  25  54 S8        29.94F WCI  35
GREENCASTLE +  CLEAR     41  18  38 S5        29.99S
LAFAYETTE      CLEAR     43  24  47 S6        29.96F
TERRE HAUTE    CLEAR     44  22  41 S12       29.99S

$$

INZ030>032-037>040-046>048-054>057-064-065-232300-
CENTRAL INDIANA

CITY           SKY/WX    TMP DP  RH WIND       PRES   REMARKS
CP ATTERBURY + CLEAR     45  21  39 S7        30.01S
COLUMBUS       CLEAR     45  18  33 S12       30.01F
FRANKFORT +    MOCLDY    44  27  50 SW6       29.98S
GREENWOOD *+   CLEAR     47  22  36 SW5       30.00S
INDIANAPOLIS   CLEAR     44  20  38 S9        29.99S
-EAGLE CREEK   CLEAR     44  16  32 S9        29.98S
KOKOMO +       CLEAR     42  24  49 S8        29.97F
MARION +       CLEAR     41  25  54 S8        29.98F
MT COMFORT *+  CLEAR     43  27  52 S5        29.99F
SHELBYVILLE    CLEAR     44  23  43 S9        29.99F
ZIONSVILLE +   CLEAR     41  22  47 S7        29.98S

$$

INZ033-034-041-042-049-050-058-059-232300-
EAST CENTRAL INDIANA

CITY           SKY/WX    TMP DP  RH WIND       PRES   REMARKS
MUNCIE         CLEAR     44  23  43 SW10      29.98S
RICHMOND +     CLEAR     36  27  69 S5        30.01R WCI  32

$$

INZ060-061-067>069-081>083-085>088-232300-
SOUTHWEST INDIANA

CITY           SKY/WX    TMP DP  RH WIND       PRES   REMARKS
EVANSVILLE     CLEAR     47  23  38 SW7       30.03S
HUNTINGBURG +  CLEAR     46  26  45 S6        30.03S
WASHINGTON +   CLEAR     46  26  46 S7        30.01S

$$

INZ062-063-066-070>080-084-089>092-232300-
SOUTH CENTRAL AND SOUTHEAST INDIANA

CITY           SKY/WX    TMP DP  RH WIND       PRES   REMARKS
BLOOMINGTON    CLEAR     45  19  35 S7        30.00S
MADISON *+     CLEAR     45  23  42 S6        30.05S
NORTH VERNON + CLEAR     43  23  45 S6        30.02F

$$





USA.gov is the U.S. government's official web portal to all federal, state and local government web resources and services.